This is the latest recevied weather packets stored in our database for station/object KC7RJK-2. If no packets are shown the sender has not sent any weather packets the latest 10 day(s).
| Time | Temp. | Humidity | Pressure | Rain* | Wind** | Luminosity | Snow |
|---|---|---|---|---|---|---|---|
| 1777828209 | 18.89° C | 79% | 1011.5 hPa | 0 mm | - | - | - |
| 1777827609 | 18.89° C | 79% | 1011.5 hPa | 0 mm | - | - | - |
| 1777827009 | 18.33° C | 80% | 1011.5 hPa | 0 mm | - | - | - |
| 1777826408 | 17.78° C | 83% | 1011.6 hPa | 0 mm | - | - | - |
| 1777825810 | 17.22° C | 85% | 1011.7 hPa | 0 mm | - | - | - |
| 1777825208 | 16.11° C | 87% | 1011.8 hPa | 0 mm | - | - | - |
| 1777824609 | 15.56° C | 91% | 1011.8 hPa | 0 mm | - | - | - |
| 1777824009 | 15° C | 94% | 1012 hPa | 0 mm | - | - | - |
| 1777823408 | 14.44° C | 96% | 1012 hPa | 0 mm | - | - | - |
| 1777822810 | 13.89° C | 97% | 1012 hPa | 0 mm | - | - | - |
| 1777822212 | 13.33° C | 97% | 1011.8 hPa | 0 mm | - | - | - |
| 1777821610 | 12.78° C | 97% | 1011.8 hPa | 0 mm | - | - | - |
| 1777821010 | 12.22° C | 97% | 1012 hPa | 0 mm | - | - | - |
| 1777820411 | 11.11° C | 97% | 1011.9 hPa | 0 mm | - | - | - |
| 1777819811 | 10.56° C | 97% | 1011.9 hPa | 0 mm | - | - | - |
| 1777819209 | 10° C | 97% | 1011.8 hPa | 0 mm | - | - | - |
| 1777818610 | 9.44° C | 97% | 1011.8 hPa | 0 mm | - | - | - |
| 1777818008 | 8.89° C | 96% | 1011.8 hPa | 0 mm | - | - | - |
| 1777817408 | 8.89° C | 96% | 1011.8 hPa | 0 mm | - | - | - |
| 1777816812 | 8.33° C | 96% | 1011.7 hPa | 0 mm | - | - | - |
| 1777816211 | 8.33° C | 96% | 1011.7 hPa | 0 mm | - | - | - |
| 1777815610 | 8.33° C | 96% | 1011.7 hPa | 0 mm | - | - | - |
| 1777815012 | 8.33° C | 96% | 1011.6 hPa | 0 mm | - | - | - |
| 1777814408 | 8.33° C | 96% | 1011.5 hPa | 0 mm | - | - | - |
| 1777813810 | 8.33° C | 96% | 1011.4 hPa | 0 mm | - | - | - |
* Rain latest hour (hover to see other rain measurements)
** Current wind speed in m/s (hover to see current wind gust speed)